Regional Weather Roundup
Issued by NWS Charleston, SC

Current Version | Previous Version | Text Only | Print | Product List | Glossary Off
Versions: 1 2 3 4 5 6 7 8 9 10 11 12 13 14 15 16 17 18 19 20 21 22 23 24 25 26 27 28 29 30 31 32 33 34 35 36 37 38 39 40 41 42 43 44 45 46 47 48 49 50

688
ASUS42 KCHS 291728
RWRCHS

REGIONAL WEATHER ROUNDUP
NATIONAL WEATHER SERVICE CHARLESTON SC
100 PM EDT THU SEP 29 2016

NOTE: "FAIR" INDICATES FEW OR NO CLOUDS BELOW 12,000 FEET WITH NO
SIGNIFICANT WEATHER AND/OR OBSTRUCTIONS TO VISIBILITY.

NOT ALL STATIONS ARE QUALITY CONTROLLED. USE DATA WITH CAUTION...
ESPECIALLY DEWPOINT OBSERVATIONS.

SCZ027-030-031-034>040-042>050-291800-
...SOUTHEAST SOUTH CAROLINA...

CITY           SKY/WX    TMP DP  RH WIND       PRES   REMARKS
N CHARLESTON   MOSUNNY   87  72  60 S12       29.97F HX  93
WATERFRONT PRK   N/A     82  76  82 S10       29.97S
MOUNT PLEASANT PTSUNNY   84  75  74 S13G20    29.98S HX  92
JOHNS ISLAND   FAIR      84  77  79 S9G16     29.98F HX  94
PINOPOLIS        N/A     82  75  78 SW6       29.91F
MONCKS CORNER  PTSUNNY   82  73  74 SW7       29.96F
SUMMERVILLE    NOT AVBL
BEAUFORT MCAS  MOSUNNY   88  65  46 W6        29.98F HX  90
BEAUFORT ARPT  FAIR      86  66  51 SW3       29.97F
HILTON HEAD IS MOSUNNY   91  72  52 S5        30.00S HX  98
WALTERBORO     MOSUNNY   88  64  45 SW6       29.98F
ALLENDALE      FAIR      84  59  42 VRB6      29.96F

...SOUTHERN MIDLANDS AND PEE DEE...

CITY           SKY/WX    TMP DP  RH WIND       PRES   REMARKS
GEORGETOWN     PTSUNNY   82  72  69 S13       29.98F
KINGSTREE      FAIR      88  70  55 S8        29.96F HX  92
ORANGEBURG     MOSUNNY   84  68  58 S10       29.97F
BARNWELL       NOT AVBL
AIKEN          FAIR      84  50  30 W6        30.00F
MANNING        PTSUNNY   82  72  69 SW7       29.97F
COLUMBIA       MOSUNNY   88  60  38 S12       29.95S
SUMTER         MOSUNNY   86  66  51 S9        29.95S
FLORENCE       MOSUNNY   81  71  71 E12       29.98F
MYRTLE BEACH   PTSUNNY   84  68  58 S17       30.00
N MYRTLE BEACH MOSUNNY   83  73  72 S13       29.99F

$$

GAZ063-065-086>088-099>101-113>116-118-119-134>141-150-291800-
...SOUTHEAST GEORGIA...

CITY           SKY/WX    TMP DP  RH WIND       PRES   REMARKS
SAVANNAH ARPT  PTSUNNY   92  62  36 W9        29.99S HX  92
HUNTER AAF     MOSUNNY   88  76  65 SW6       29.97S HX  99
FORT STEWART   MOSUNNY   88  63  43 W3        29.97F
STATESBORO     SUNNY     87  58  37 W6        29.98F
SYLVANIA       NOT AVBL
CLAXTON        FAIR      87  65  48 CALM      29.98F

...CSRA...CENTRAL AND FAR SOUTHEAST GEORGIA...

CITY           SKY/WX    TMP DP  RH WIND       PRES   REMARKS
THOMSON        SUNNY     89  51  27 W6G18     29.99F
AUGUSTA-BUSH   SUNNY     86  56  35 SW12      29.95F
AUGUSTA-DANIEL SUNNY     87  49  26 VRB3      29.97F
SWAINSBORO     FAIR      86  59  39 SW9       29.97F
VIDALIA        MOSUNNY   88  70  55 W6        29.98F HX  92
EASTMAN        FAIR      89  39  16 SW8       29.99F
HAZLEHURST     FAIR      88  67  48 NE5       29.98F HX  91
ALMA           PTSUNNY   87  67  51 S7        29.99F HX  90
WAYCROSS       CLOUDY    87  73  63 W3        29.99F HX  95
JESUP          CLOUDY    90  72  55 W6        29.99F HX  96
BAXLEY         CLOUDY    84  72  65 SW5       29.99F
BRUNSWICK      SUNNY     88  68  51 N3        30.00F HX  91
SAINT SIMONS   SUNNY     86  70  58 MISG      30.00F HX  90

$$

SCZ027-028-034-036>038-045-046-048>050-GAZ119-141-291800-
...LAKE AND SUPPLEMENTAL COASTAL OBSERVATIONS...

STATION/POSITION TIME  TEMP    WIND        PRES    WAVE   SWELL
                       AIR SEA DIR/SP/G            HT/PER HT/PER/DIR
                 (UTC) (F)     (DEG/KT/KT) (MB)    (FT/S) (FT/S/D)
WINYAH BAY       1630   83     200/ 11     1015.0R
LAKE MURRAY      1720   83     150/  3/  4 1013.9
ACE BASIN NERRS  1645   85     230/  2     1016.0S
FORT PULASKI     1700   85 81  170/  5/  8 1015.8
SAPELO ISLAND    1700   89     300/  2     1016.0

$$

ANZ835-935-AMZ111-154-330-350-352-354-370-450-454-472-291800-
...C-MAN AND BUOY OBSERVATIONS...

STATION/POSITION TIME  TEMP    WIND        PRES    WAVE   SWELL
                       AIR SEA DIR/SP/G            HT/PER HT/PER/DIR
                 (UTC) (F)     (DEG/KT/KT) (MB)    (FT/S) (FT/S/D)
BUOY 41004       1650   80 82  180/ 17/ 19 1015.2R   4/ 5   2/120/11
BUOY 41008       1650   80 82  240/  6/  8 1015.9F   2/ 5   2/160/ 5
FOLLY BEACH CMAN 1700   81     200/  9/ 10 1015.7F
CAPERS NEARSHORE 1708   80 81  210/ 10/ 14 1015.3F
FRIPP NEARSHORE  1608   85 81  240/ 10/ 12 1015.8R


STATION/POSITION TIME  TEMP    WIND        PRES    WAVE   SWELL
                       AIR SEA DIR/SP/G            HT/PER HT/PER/DIR
                 (UTC) (F)     (DEG/KT/KT) (MB)    (FT/S) (FT/S/D)
5E ST. MARYS GA  1701      83                N/A     2/11   2/110/11
FRYING PAN BUOY  1710   80 82  190/ 12/ 14 1016.0
BUOY 41025       1650   80 83   20/  2/  4 1017.3R   4/ 7   3/100/ 7
CAPE LOOKOUT NC  1700   80      50/ 10/ 10 1016.7F
BUOY 41002       1650   81 83  170/  6/  8 1017.5F   3/11   3/ 80/11
BUOY 41010       NOT AVBL
ST AUGUSTINE FL  1700   86 84  270/  4/  6 1017.0F


$$




USA.gov is the U.S. government's official web portal to all federal, state and local government web resources and services.